[[[{"header":{"parameterUnit":"kt","parameterCategory":2,"dx":1,"dy":1,"la1":30.253999710083008,"la2":30.299108505249023,"lo1":-89.0895004272461,"lo2":-89.04439544677734,"nx":28,"ny":28,"refTime":"2022-10-15T21:00:00:Z","depth":0,"parameterNumber":1,"parameterNumberName":"U-component_of_WINDS"},"data":[1.2301,1.2286,1.2297,1.2285,1.2292,1.2286,1.2287,1.229,1.2295,1.2289,1.2288,1.2297,1.2306,1.2307,1.2306,1.2311,1.2309,1.2297,1.2304,1.2349,1.2356,1.2362,1.2366,1.2297,1.2297,1.2255,1.2254,1.2254,1.2335,1.2342,1.2339,1.2343,1.234,1.2359,1.2363,1.236,1.2354,1.2359,1.2358,1.2354,1.2352,1.2366,1.2365,1.2359,1.2367,1.2359,1.2358,1.2359,1.2409,1.2412,1.2352,1.2352,1.2352,1.2352,1.2352,1.2352,1.24,1.2391,1.2399,1.2395,1.24,1.2403,1.2396,1.2407,1.2404,1.2404,1.2417,1.2411,1.2418,1.2423,1.2427,1.2422,1.2434,1.2427,1.2425,1.2423,1.2419,1.2477,1.2423,1.2423,1.2423,1.2424,1.2424,0,1.2451,1.246,1.2457,1.2457,1.2455,1.2456,1.2459,1.2455,1.2478,1.2474,1.247,1.2469,1.2468,1.2465,1.2467,1.2473,1.249,1.2493,1.2489,1.2481,1.2475,1.2477,1.2556,1.2494,1.2495,1.2495,1.2496,1.2496,1.2516,1.2504,1.2517,1.2514,1.2518,1.2512,1.251,1.2531,1.2529,1.2535,1.2526,1.2524,1.2522,1.2514,1.2527,1.2526,1.2534,1.2509,1.2533,1.2528,1.2532,1.2532,1.2531,1.2503,1.2502,1.2501,1.2501,0,1.2552,1.2568,1.2553,1.2566,1.257,1.2556,1.2568,1.2559,1.2571,1.2561,1.2559,1.2577,1.2572,1.2589,1.2587,1.2595,1.2574,1.2583,1.2572,1.2574,1.2553,1.2554,1.2482,1.2474,1.2547,1.2546,1.2546,0,1.2614,1.2597,1.2622,1.2612,1.2594,1.2615,1.2597,1.2604,1.2611,1.2603,1.2626,1.2618,1.264,1.2635,1.2648,1.2633,1.2633,1.2639,1.2642,1.2636,1.2635,1.2633,1.2636,1.2651,1.2651,1.2651,1.2652,0,1.2668,1.2661,1.2645,1.2646,1.2658,1.265,1.2655,1.2661,1.266,1.266,1.2659,1.2658,1.2657,1.2657,1.2673,1.2689,1.2656,1.2681,1.2661,1.2661,1.2651,1.2651,1.2585,1.2652,1.2652,1.2652,1.2652,0,1.2719,1.2719,1.2693,1.2704,1.2701,1.269,1.269,1.2685,1.269,1.2698,1.2698,1.2714,1.2703,1.2727,1.2712,1.2728,1.2726,1.2731,1.273,1.2728,1.2754,1.2714,1.265,1.2643,1.2729,1.273,1.2731,0,1.2776,1.2754,1.2771,1.2746,1.2737,1.2763,1.2752,1.2755,1.2764,1.2759,1.2769,1.2762,1.2783,1.2783,1.2774,1.2783,1.2762,1.2787,1.2778,1.2778,1.2775,1.2717,1.2703,1.2662,1.2739,1.2738,1.2738,0,1.2822,1.2836,1.283,1.2831,1.2839,1.2832,1.2819,1.2817,1.2812,1.2814,1.2803,1.2795,1.281,1.281,1.2823,1.2812,1.2777,1.283,1.283,1.2819,1.2745,1.2731,1.2724,1.2788,1.2787,1.2787,1.2744,0,1.2895,1.2885,1.2871,1.2873,1.287,1.2855,1.2871,1.2866,1.2879,1.2887,1.2872,1.2879,1.2876,1.2872,1.2884,1.2854,1.2861,1.2878,1.2901,1.2863,1.2849,1.2844,1.292,1.2921,1.2922,1.2922,0,0,1.2945,1.2931,1.2949,1.2937,1.2935,1.2961,1.2943,1.2945,1.2947,1.2945,1.2959,1.2947,1.2951,1.2931,1.292,1.2919,1.2915,1.2927,1.2881,1.2876,1.2872,1.2857,1.2851,1.2923,1.2923,1.2924,1.2924,0,1.2975,1.2978,1.296,1.2963,1.2967,1.2977,1.2973,1.2981,1.2986,1.297,1.2991,1.2984,1.2973,1.2975,1.2974,1.2931,1.2946,1.2929,1.29,1.2887,1.2882,1.2877,1.2861,1.2855,1.2926,1.2925,1.2925,0,1.3022,1.3028,1.3021,1.3018,1.3021,1.3011,1.304,1.3029,1.3022,1.3049,1.3034,1.3039,1.3043,1.3021,1.3012,1.3024,1.2974,1.2992,1.2988,1.2987,1.2976,1.2969,1.2963,1.3041,1.3041,1.3042,0,0,1.3045,1.3036,1.3048,1.3026,1.3026,1.304,1.3036,1.3048,1.305,1.3051,1.3058,1.306,1.3054,1.3049,1.3044,1.3019,1.3021,1.3006,1.3,1.2996,1.2992,1.2979,1.2973,1.3043,1.3043,1.3043,0,0,1.3056,1.3069,1.3081,1.3057,1.3059,1.3069,1.3054,1.3069,1.3066,1.3069,1.3088,1.309,1.307,1.3074,1.3089,1.3053,1.3076,1.3072,1.3051,1.3044,1.3039,1.3037,1.3119,0,0,0,0,0,1.3094,1.3068,1.3079,1.3077,1.3073,1.3063,1.3063,1.3077,1.3094,1.3082,1.309,1.3107,1.3086,1.31,1.3098,1.3081,1.3059,1.3056,1.3054,1.3019,1.3012,1.3006,0,0,0,0,0,0,1.3094,1.3091,1.3079,1.3088,1.3087,1.3064,1.3095,1.3098,1.3095,1.3099,1.3105,1.3107,1.312,1.3102,1.31,1.3083,1.3119,1.3058,1.3056,1.3053,1.3017,1.3011,1.3006,0,0,0,0,0,1.3093,1.3091,1.3081,1.3088,1.3088,1.3102,1.3096,1.3099,1.3097,1.3109,1.3112,1.3108,1.3119,1.3118,1.3101,1.3084,1.3121,1.312,1.3057,1.3055,1.3053,1.3014,0,0,0,0,0,0,1.3093,1.3094,1.3081,1.3081,1.3099,1.3103,1.3104,1.3099,1.3108,1.311,1.3113,1.3116,1.3118,1.3118,1.3117,1.3083,1.3122,1.3121,1.3121,1.3055,1.3054,1.3052,0,0,0,0,0,0,1.3095,1.3094,1.3081,1.3094,1.3096,1.3105,1.3105,1.3093,1.3107,1.3111,1.3114,1.3114,1.3119,1.3117,1.3117,1.3097,1.3123,1.3122,1.3122,1.3121,1.3054,1.3053,0,0,0,0,0,0,1.3095,1.3094,1.3094,1.3095,1.3097,1.3102,1.3094,1.3089,1.3118,1.3111,1.3121,1.3123,1.3118,1.3118,1.3116,1.3096,1.3096,1.3123,1.3123,1.3122,1.3122,0,0,0,0,0,0,0,1.3095,1.3097,1.3079,1.3096,1.3098,1.3085,1.3085,1.3085,1.3118,1.312,1.3121,1.3122,1.3128,1.3127,1.3126,1.3096,0,0,1.3123,1.3123,0,0,0,0,0,0,0,0,1.3098,1.3097,1.3079,1.3079,1.3079,1.3085,1.3085,1.3085,1.3119,1.312,1.3121,1.3122,1.3127,1.3127,1.3126,0,0,0,0,0,0,0,0,0,0,0,0,0,0,0,1.3079,1.3079,0,1.3085,1.3085,1.3085,1.3119,1.312,1.312,1.3121,1.3127,1.3127,1.3126,0,0,0,0,0,0,0,0,0,0,0,0,0,0,0,0,0,0,0,0,0,0,0,0,0,0,0,0,0,0,0,0,0,0,0,0,0,0,0,0,0,0,0,0,0,0,0,0,0,0,0,0,0,0,0,0,0,0,0,0,0,0,0,0,0,0,0,0,0]}],[{"header":{"parameterUnit":"kt","parameterCategory":2,"dx":1,"dy":1,"la1":30.253999710083008,"la2":30.299108505249023,"lo1":-89.0895004272461,"lo2":-89.04439544677734,"nx":28,"ny":28,"refTime":"2022-10-15T21:00:00:Z","depth":0,"parameterNumber":2,"parameterNumberName":"V-component_of_WINDS"},"data":[-1.2166,-1.2229,-1.2245,-1.2325,-1.2352,-1.2411,-1.2437,-1.2473,-1.2505,-1.2578,-1.2623,-1.2645,-1.2684,-1.2742,-1.2793,-1.2802,-1.2825,-1.2839,-1.2848,-1.2768,-1.2758,-1.2749,-1.2736,-1.2842,-1.2842,-1.2929,-1.293,-1.2931,-1.2117,-1.2144,-1.2189,-1.2243,-1.2283,-1.228,-1.2323,-1.2357,-1.241,-1.2448,-1.2492,-1.2557,-1.2611,-1.2644,-1.2699,-1.2732,-1.2735,-1.2747,-1.2747,-1.2754,-1.2669,-1.2654,-1.2745,-1.2745,-1.2745,-1.2745,-1.2745,-1.2745,-1.2031,-1.2068,-1.2108,-1.2157,-1.2188,-1.2224,-1.2262,-1.2286,-1.2331,-1.2387,-1.2394,-1.2453,-1.2495,-1.2565,-1.2592,-1.2641,-1.263,-1.2648,-1.2653,-1.2659,-1.2665,-1.2548,-1.265,-1.2649,-1.2649,-1.2649,-1.2649,0,-1.1974,-1.1984,-1.2026,-1.2074,-1.211,-1.2148,-1.2185,-1.2208,-1.2231,-1.2266,-1.232,-1.2353,-1.242,-1.2473,-1.2525,-1.2549,-1.255,-1.2549,-1.2562,-1.2563,-1.2559,-1.2568,-1.2434,-1.2546,-1.2545,-1.2544,-1.2544,-1.2544,-1.1893,-1.1931,-1.1977,-1.2006,-1.2028,-1.2073,-1.2103,-1.2119,-1.215,-1.2198,-1.223,-1.2281,-1.2324,-1.2407,-1.2434,-1.2484,-1.2485,-1.2527,-1.2492,-1.2492,-1.2492,-1.2491,-1.2498,-1.2535,-1.2536,-1.2537,-1.2537,0,-1.1848,-1.1867,-1.193,-1.197,-1.1982,-1.2022,-1.2058,-1.2094,-1.2111,-1.2165,-1.2178,-1.2206,-1.2258,-1.2277,-1.2338,-1.2348,-1.2422,-1.2419,-1.2411,-1.2413,-1.2457,-1.2454,-1.2585,-1.2606,-1.249,-1.2491,-1.2492,0,-1.1788,-1.1836,-1.1863,-1.1898,-1.1955,-1.1968,-1.2023,-1.2043,-1.2075,-1.2117,-1.2117,-1.2157,-1.2174,-1.2217,-1.223,-1.2293,-1.2303,-1.2315,-1.2319,-1.2318,-1.2317,-1.2337,-1.2334,-1.2318,-1.2317,-1.2317,-1.2316,0,-1.1717,-1.1785,-1.1842,-1.186,-1.1906,-1.1933,-1.1954,-1.1988,-1.2016,-1.2055,-1.2074,-1.2118,-1.2143,-1.2178,-1.2195,-1.2171,-1.227,-1.224,-1.2283,-1.2283,-1.2305,-1.2305,-1.2413,-1.2315,-1.2315,-1.2315,-1.2314,0,-1.1672,-1.1709,-1.1785,-1.1825,-1.1842,-1.1878,-1.1923,-1.1957,-1.1993,-1.2003,-1.2033,-1.2036,-1.2087,-1.2058,-1.2132,-1.2097,-1.2122,-1.2137,-1.214,-1.2149,-1.2116,-1.2181,-1.2278,-1.2292,-1.2155,-1.2154,-1.2153,0,-1.1589,-1.1669,-1.168,-1.1752,-1.1792,-1.1791,-1.1832,-1.1862,-1.1878,-1.1916,-1.1933,-1.1975,-1.1956,-1.1972,-1.2005,-1.2026,-1.2071,-1.202,-1.2081,-1.2083,-1.2076,-1.2165,-1.2177,-1.2254,-1.2136,-1.2137,-1.2139,0,-1.1526,-1.1578,-1.1589,-1.1612,-1.1651,-1.1683,-1.1728,-1.1771,-1.1797,-1.1827,-1.1869,-1.1924,-1.1915,-1.1939,-1.1944,-1.1978,-1.2041,-1.1962,-1.1963,-1.198,-1.2126,-1.2139,-1.2151,-1.2038,-1.204,-1.2042,-1.2125,0,-1.1463,-1.1502,-1.1533,-1.1577,-1.1603,-1.1646,-1.1663,-1.1689,-1.1692,-1.1707,-1.1765,-1.179,-1.1834,-1.1849,-1.1851,-1.192,-1.1912,-1.1899,-1.1873,-1.1929,-1.1958,-1.1969,-1.183,-1.183,-1.1829,-1.1829,0,0,-1.1381,-1.1437,-1.1444,-1.1486,-1.151,-1.1505,-1.1551,-1.1572,-1.1615,-1.1633,-1.1618,-1.17,-1.1721,-1.179,-1.1808,-1.1823,-1.1839,-1.1816,-1.1901,-1.1909,-1.1917,-1.1947,-1.1958,-1.1828,-1.1827,-1.1827,-1.1827,0,-1.1361,-1.138,-1.1422,-1.1445,-1.1478,-1.149,-1.1501,-1.1532,-1.1543,-1.1596,-1.1593,-1.1628,-1.169,-1.1715,-1.1736,-1.1808,-1.1805,-1.1819,-1.1855,-1.1895,-1.1904,-1.1911,-1.1943,-1.1953,-1.1825,-1.1826,-1.1826,0,-1.1306,-1.1328,-1.1349,-1.1396,-1.1417,-1.1456,-1.1433,-1.1472,-1.1502,-1.1493,-1.1546,-1.1562,-1.1594,-1.1653,-1.168,-1.1668,-1.1773,-1.1739,-1.1744,-1.1748,-1.1787,-1.1797,-1.1807,-1.1684,-1.1684,-1.1683,0,0,-1.1287,-1.1321,-1.1348,-1.1393,-1.1407,-1.1424,-1.1444,-1.1448,-1.1476,-1.1487,-1.1507,-1.1536,-1.1573,-1.1597,-1.1632,-1.1693,-1.1703,-1.1721,-1.1728,-1.1734,-1.1741,-1.1781,-1.1791,-1.1681,-1.1681,-1.1681,0,0,-1.1277,-1.131,-1.1307,-1.136,-1.1387,-1.1417,-1.1445,-1.1442,-1.1474,-1.1471,-1.1479,-1.1486,-1.1541,-1.1556,-1.1527,-1.1623,-1.1597,-1.1604,-1.1612,-1.162,-1.1627,-1.1623,-1.1507,0,0,0,0,0,-1.1264,-1.1306,-1.1303,-1.1314,-1.1372,-1.1419,-1.1427,-1.1434,-1.1417,-1.1439,-1.1456,-1.1448,-1.1543,-1.1518,-1.1529,-1.1562,-1.1655,-1.1659,-1.1664,-1.1688,-1.1697,-1.1704,0,0,0,0,0,0,-1.1268,-1.1281,-1.1302,-1.1333,-1.1346,-1.1417,-1.139,-1.1393,-1.1414,-1.1412,-1.1445,-1.1449,-1.1456,-1.1512,-1.1522,-1.1553,-1.1503,-1.1656,-1.166,-1.1664,-1.1691,-1.1698,-1.1705,0,0,0,0,0,-1.1272,-1.1282,-1.1373,-1.1332,-1.1344,-1.1364,-1.1388,-1.1391,-1.1407,-1.1432,-1.1435,-1.1411,-1.1457,-1.1466,-1.1518,-1.1549,-1.1497,-1.15,-1.1659,-1.1662,-1.1665,-1.1695,0,0,0,0,0,0,-1.1274,-1.1286,-1.1375,-1.1379,-1.1316,-1.136,-1.1367,-1.1389,-1.1425,-1.1429,-1.1398,-1.1396,-1.1458,-1.1464,-1.1471,-1.1547,-1.1491,-1.1495,-1.1497,-1.1661,-1.1664,-1.1666,0,0,0,0,0,0,-1.128,-1.1289,-1.1377,-1.1356,-1.1358,-1.1357,-1.1363,-1.1407,-1.1426,-1.139,-1.1389,-1.1396,-1.1447,-1.1464,-1.1469,-1.1538,-1.1487,-1.149,-1.1493,-1.1494,-1.1663,-1.1665,0,0,0,0,0,0,-1.1284,-1.1291,-1.1355,-1.1356,-1.1358,-1.1401,-1.1396,-1.1455,-1.1407,-1.1388,-1.1403,-1.1401,-1.1447,-1.1453,-1.1468,-1.1534,-1.1537,-1.1487,-1.1489,-1.1491,-1.1492,0,0,0,0,0,0,0,-1.1287,-1.1233,-1.1353,-1.1357,-1.1358,-1.1415,-1.1416,-1.1417,-1.1407,-1.1405,-1.1403,-1.1402,-1.1466,-1.147,-1.1474,-1.1531,0,0,-1.1486,-1.1488,0,0,0,0,0,0,0,0,-1.123,-1.1232,-1.1353,-1.1354,-1.1354,-1.1415,-1.1416,-1.1417,-1.1406,-1.1405,-1.1404,-1.1403,-1.1467,-1.147,-1.1473,0,0,0,0,0,0,0,0,0,0,0,0,0,0,0,-1.1353,-1.1354,0,-1.1415,-1.1416,-1.1417,-1.1406,-1.1405,-1.1404,-1.1403,-1.1468,-1.147,-1.1473,0,0,0,0,0,0,0,0,0,0,0,0,0,0,0,0,0,0,0,0,0,0,0,0,0,0,0,0,0,0,0,0,0,0,0,0,0,0,0,0,0,0,0,0,0,0,0,0,0,0,0,0,0,0,0,0,0,0,0,0,0,0,0,0,0,0,0,0,0]}]]]